TimeMDT,TemperatureF,Dew PointF,Humidity,Sea Level PressureIn,VisibilityMPH,Wind Direction,Wind SpeedMPH,Gust SpeedMPH,PrecipitationIn,Events,Conditions,WindDirDegrees,DateUTC
12:53 AM,51.1,30.0,44,29.83,10.0,Calm,Calm,-,N/A,,Clear,0,2013-07-21 06:53:00
1:53 AM,50.0,28.9,44,29.82,10.0,Calm,Calm,-,N/A,,Clear,0,2013-07-21 07:53:00
2:53 AM,48.0,25.0,41,29.83,10.0,East,4.6,-,N/A,,Clear,100,2013-07-21 08:53:00
3:53 AM,45.0,21.9,40,29.83,10.0,Calm,Calm,-,N/A,,Clear,0,2013-07-21 09:53:00
4:53 AM,45.0,30.0,56,29.83,10.0,East,6.9,-,N/A,,Clear,80,2013-07-21 10:53:00
5:53 AM,44.1,27.0,51,29.84,10.0,ENE,6.9,-,N/A,,Clear,60,2013-07-21 11:53:00
6:53 AM,48.0,26.1,42,29.84,10.0,Calm,Calm,-,N/A,,Clear,0,2013-07-21 12:53:00
7:53 AM,55.0,28.9,37,29.84,10.0,Calm,Calm,-,N/A,,Clear,0,2013-07-21 13:53:00
8:53 AM,64.9,28.9,26,29.83,10.0,ENE,8.1,-,N/A,,Clear,70,2013-07-21 14:53:00
9:53 AM,70.0,28.9,22,29.85,10.0,East,6.9,-,N/A,,Clear,100,2013-07-21 15:53:00
10:53 AM,79.0,26.1,14,29.82,10.0,Variable,3.5,-,N/A,,Clear,0,2013-07-21 16:53:00
11:53 AM,84.9,9.0,6,29.81,10.0,NW,15.0,21.9,N/A,,Clear,320,2013-07-21 17:53:00
12:53 PM,87.1,9.0,5,29.81,10.0,NW,12.7,20.7,N/A,,Clear,320,2013-07-21 18:53:00
1:53 PM,87.1,3.0,4,29.81,10.0,WNW,17.3,-,N/A,,Clear,300,2013-07-21 19:53:00
2:53 PM,88.0,3.0,4,29.81,10.0,NW,21.9,28.8,N/A,,Clear,310,2013-07-21 20:53:00
3:53 PM,88.0,3.9,4,29.82,10.0,NW,20.7,28.8,N/A,,Clear,320,2013-07-21 21:53:00
4:53 PM,88.0,6.1,5,29.81,10.0,WNW,21.9,32.2,N/A,,Clear,300,2013-07-21 22:53:00
5:53 PM,86.0,10.0,6,29.82,10.0,NNW,17.3,25.3,N/A,,Clear,330,2013-07-21 23:53:00
6:53 PM,84.0,6.1,5,29.81,10.0,NW,17.3,-,N/A,,Clear,320,2013-07-22 00:53:00
7:53 PM,78.1,14.0,9,29.82,10.0,NW,12.7,-,N/A,,Clear,320,2013-07-22 01:53:00
8:53 PM,70.0,8.1,9,29.82,10.0,North,11.5,-,N/A,,Clear,350,2013-07-22 02:53:00
9:53 PM,62.1,10.0,13,29.86,10.0,NNW,10.4,-,N/A,,Clear,340,2013-07-22 03:53:00
10:53 PM,59.0,17.1,20,29.85,10.0,NNW,12.7,-,N/A,,Clear,340,2013-07-22 04:53:00
11:53 PM,55.9,15.1,20,29.84,10.0,North,12.7,-,N/A,,Clear,350,2013-07-22 05:53:00